Weather History for KE38 - January, 2013

Change the Weather History Date:

Sunday, January 13, 2013

  Actual Average (KMRF) Record (KMRF)
Temperature  
Mean Temperature 30 °F -  
Max Temperature 41 °F 56 °F 66 °F (2000)
Min Temperature 20 °F 25 °F 10 °F (2011)
Degree Days  
Heating Degree Days 34    
Moisture  
Dew Point 16 °F    
Average Humidity 59    
Maximum Humidity 84    
Minimum Humidity 34    
Precipitation  
Precipitation 0.00 in - - ()
Sea Level Pressure  
Sea Level Pressure 30.09 in    
Wind  
Wind Speed 4 mph (North)    
Max Wind Speed 10 mph    
Max Gust Speed -    
Visibility 10 miles    
Events      
Averages and records for this station are not official NWS values.
T = Trace of Precipitation, MM = Missing Value Source: NWS Daily Summary

Daily Weather History Graph

Daily Weather History Graph

Search for Another Location

Airport or City:

Trip Planner

Search our weather history database for the weather conditions in past years. The results will help you decide how hot, cold, wet, or windy it might be!

Date:

Astronomy

Jan. 13, 2013 Rise Set
Actual Time 7:52 AM CST 6:15 PM CST
Civil Twilight 7:26 AM CST 6:41 PM CST
Nautical Twilight 6:56 AM CST 7:10 PM CST
Astronomical Twilight 6:27 AM CST 7:39 PM CST
Moon 9:04 AM CST (1/13) 8:42 PM CST (1/13)
Length of Visible Light 11h 14m
Length of Day
10h 22m
Waxing Crescent, 5% of the Moon is Illuminated
Jan 13
Waxing Crescent
Jan 18
First Quarter
Jan 26
Full
Feb 3
Last Quarter
Feb 10
New

Hourly Weather History & Observations

Time (CST) Temp. Windchill Dew Point Humidity Pressure Visibility Wind Dir Wind Speed Gust Speed Precip Events Conditions
12:15 AM 29.7 °F 26.1 °F 19.2 °F 65% 30.06 in 10.0 mi West 3.5 mph - N/A   Clear
12:35 AM 31.8 °F 23.9 °F 16.5 °F 53% 30.06 in 10.0 mi West 9.2 mph - N/A   Clear
12:55 AM 32.7 °F 24.5 °F 15.3 °F 49% 30.06 in 10.0 mi West 10.4 mph - N/A   Clear
1:15 AM 32.5 °F 26.2 °F 14.2 °F 47% 30.07 in 10.0 mi WNW 6.9 mph - N/A   Clear
1:35 AM 31.8 °F 27.3 °F 14.5 °F 49% 30.07 in 10.0 mi WNW 4.6 mph - N/A   Clear
1:55 AM 29.7 °F - 15.3 °F 55% 30.08 in 10.0 mi Calm Calm - N/A   Clear
2:15 AM 30.4 °F 26.9 °F 14.7 °F 52% 30.08 in 10.0 mi NE 3.5 mph - N/A   Clear
2:35 AM 29.1 °F - 15.4 °F 57% 30.08 in 10.0 mi Calm Calm - N/A   Clear
2:55 AM 29.8 °F - 13.8 °F 51% 30.08 in 10.0 mi Calm Calm - N/A   Clear
3:15 AM 27.0 °F 21.6 °F 15.3 °F 61% 30.09 in 10.0 mi SSE 4.6 mph - N/A   Clear
3:35 AM 28.6 °F - 14.4 °F 55% 30.09 in 10.0 mi Calm Calm - N/A   Clear
3:55 AM 28.6 °F 21.5 °F 13.6 °F 54% 30.09 in 10.0 mi WNW 6.9 mph - N/A   Clear
4:15 AM 27.5 °F - 14.2 °F 57% 30.09 in 10.0 mi Calm Calm - N/A   Clear
4:35 AM 26.8 °F - 14.4 °F 60% 30.09 in 10.0 mi Calm Calm - N/A   Clear
4:55 AM 25.2 °F - 15.3 °F 66% 30.10 in 10.0 mi Calm Calm - N/A   Clear
5:15 AM 25.3 °F - 15.1 °F 65% 30.10 in 10.0 mi Calm Calm - N/A   Clear
5:35 AM 22.1 °F - 15.8 °F 77% 30.11 in 10.0 mi Calm Calm - N/A   Clear
5:55 AM 23.7 °F - 14.4 °F 67% 30.11 in 10.0 mi Calm Calm - N/A   Clear
6:15 AM 25.0 °F - 12.9 °F 60% 30.12 in 10.0 mi Calm Calm - N/A   Clear
6:35 AM 21.9 °F - 14.2 °F 72% 30.12 in 10.0 mi Calm Calm - N/A   Clear
6:55 AM 20.1 °F - 14.9 °F 80% 30.14 in 10.0 mi Calm Calm - N/A   Clear
7:15 AM 20.1 °F - 14.9 °F 80% 30.14 in 10.0 mi Calm Calm - N/A   Clear
7:35 AM 23.2 °F - 12.9 °F 65% 30.15 in 10.0 mi Calm Calm - N/A   Clear
7:55 AM 22.5 °F - 12.6 °F 66% 30.16 in 10.0 mi Calm Calm - N/A   Clear
8:15 AM 20.8 °F - 13.8 °F 74% 30.16 in 10.0 mi Calm Calm - N/A   Clear
8:35 AM 22.1 °F - 16.7 °F 80% 30.16 in 10.0 mi Calm Calm - N/A   Clear
8:55 AM 26.6 °F - 17.6 °F 69% 30.17 in 10.0 mi Calm Calm - N/A   Clear
9:15 AM 28.8 °F 23.7 °F 16.9 °F 61% 30.18 in 10.0 mi NE 4.6 mph - N/A   Clear
9:35 AM 29.7 °F 24.7 °F 17.1 °F 59% 30.18 in 10.0 mi NE 4.6 mph - N/A   Clear
9:55 AM 30.6 °F - 15.6 °F 54% 30.19 in 10.0 mi Calm Calm - N/A   Clear
10:15 AM 31.8 °F 25.4 °F 13.6 °F 47% 30.18 in 10.0 mi North 6.9 mph - N/A   Clear
10:35 AM 32.2 °F 26.7 °F 11.5 °F 42% 30.18 in 10.0 mi NNE 5.8 mph - N/A   Clear
10:55 AM 32.5 °F 27.1 °F 11.8 °F 42% 30.18 in 10.0 mi North 5.8 mph - N/A   Clear
11:15 AM 33.8 °F 27.0 °F 12.0 °F 41% 30.17 in 10.0 mi NE 8.1 mph - N/A   Clear
11:35 AM 34.2 °F 27.5 °F 10.6 °F 38% 30.16 in 10.0 mi North 8.1 mph - N/A   Clear
11:55 AM 34.5 °F 30.4 °F 10.8 °F 37% 30.15 in 10.0 mi East 4.6 mph - N/A   Clear
12:15 PM 35.4 °F 29.7 °F 11.1 °F 37% 30.14 in 10.0 mi NNE 6.9 mph - N/A   Clear
12:55 PM 36.5 °F 31.0 °F 13.1 °F 38% 30.11 in 10.0 mi NNE 6.9 mph - N/A   Clear
1:15 PM 37.2 °F 32.6 °F 12.9 °F 37% 30.10 in 10.0 mi NE 5.8 mph - N/A   Clear
1:35 PM 37.6 °F 33.1 °F 13.1 °F 37% 30.08 in 10.0 mi North 5.8 mph - N/A   Clear
1:55 PM 38.5 °F 34.1 °F 13.8 °F 37% 30.07 in 10.0 mi North 5.8 mph - N/A   Clear
2:15 PM 38.8 °F 33.8 °F 13.3 °F 35% 30.06 in 10.0 mi ENE 6.9 mph - N/A   Clear
2:35 PM 39.9 °F 37.8 °F 14.0 °F 35% 30.06 in 10.0 mi ENE 3.5 mph - N/A   Clear
2:55 PM 40.5 °F 35.1 °F 14.9 °F 35% 30.06 in 10.0 mi NE 8.1 mph - N/A   Clear
3:15 PM 40.5 °F 35.8 °F 14.0 °F 34% 30.05 in 10.0 mi NE 6.9 mph - N/A   Clear
3:35 PM 40.6 °F 37.5 °F 14.0 °F 34% 30.04 in 10.0 mi NE 4.6 mph - N/A   Clear
3:55 PM 41.2 °F 36.0 °F 16.2 °F 36% 30.04 in 10.0 mi NE 8.1 mph - N/A   Clear
4:55 PM 39.6 °F 34.0 °F 17.4 °F 41% 30.04 in 10.0 mi NNE 8.1 mph - N/A   Clear
5:15 PM 39.0 °F 32.8 °F 17.6 °F 42% 30.05 in 10.0 mi NE 9.2 mph - N/A   Clear
5:35 PM 38.1 °F 31.2 °F 18.7 °F 46% 30.06 in 10.0 mi NNE 10.4 mph - N/A   Clear
5:55 PM 36.7 °F 29.4 °F 19.9 °F 51% 30.06 in 10.0 mi NNE 10.4 mph - N/A   Clear
6:15 PM 34.7 °F 28.1 °F 20.7 °F 57% 30.06 in 10.0 mi NNE 8.1 mph - N/A   Clear
6:35 PM 33.1 °F 28.7 °F 21.6 °F 63% 30.06 in 10.0 mi NNE 4.6 mph - N/A   Clear
6:55 PM 32.0 °F 27.5 °F 21.9 °F 66% 30.06 in 10.0 mi North 4.6 mph - N/A   Clear
7:15 PM 31.1 °F 26.4 °F 21.9 °F 69% 30.06 in 10.0 mi NNE 4.6 mph - N/A   Clear
7:35 PM 30.6 °F 25.8 °F 22.1 °F 71% 30.06 in 10.0 mi North 4.6 mph - N/A   Clear
7:55 PM 29.3 °F 20.8 °F 21.7 °F 73% 30.06 in 10.0 mi North 9.2 mph - N/A   Clear
8:15 PM 29.5 °F 21.8 °F 21.2 °F 71% 30.06 in 10.0 mi North 8.1 mph - N/A   Clear
8:35 PM 29.1 °F 22.1 °F 21.2 °F 72% 30.06 in 10.0 mi North 6.9 mph - N/A   Clear
8:55 PM 28.8 °F 22.6 °F 21.4 °F 74% 30.06 in 10.0 mi North 5.8 mph - N/A   Clear
9:15 PM 27.5 °F 23.6 °F 21.4 °F 78% 30.07 in 10.0 mi NNW 3.5 mph - N/A   Clear
9:35 PM 26.6 °F - 21.2 °F 80% 30.07 in 10.0 mi Calm Calm - N/A   Clear
9:55 PM 26.2 °F 22.1 °F 21.2 °F 81% 30.07 in 10.0 mi NNW 3.5 mph - N/A   Clear
10:15 PM 26.1 °F 20.5 °F 21.2 °F 82% 30.06 in 10.0 mi NNW 4.6 mph - N/A   Clear
10:35 PM 25.7 °F 20.1 °F 21.2 °F 83% 30.06 in 10.0 mi NW 4.6 mph - N/A   Clear
10:55 PM 25.3 °F - 21.2 °F 84% 30.05 in 10.0 mi Calm Calm - N/A   Clear
11:15 PM 25.5 °F 19.9 °F 21.2 °F 84% 30.06 in 10.0 mi NNW 4.6 mph - N/A   Clear
11:35 PM 25.3 °F 18.5 °F 21.0 °F 84% 30.06 in 10.0 mi NNW 5.8 mph - N/A   Clear
11:55 PM 25.2 °F 18.3 °F 21.0 °F 84% 30.06 in 10.0 mi NNW 5.8 mph - N/A   Clear